STARLINK-36713, 67701

Orbit data source: Space-Track

STARLINK-36713, 67701 is a payload satellite owned by SpaceX/Seattle (US) in SSO that was launched on Sat, 07 Feb 2026 UTC via an FALCON 9 launch vehicle from the Air Force Western Test Range (AFWTR). Payload-class satellites include a variety of spacecraft equipped with specific instruments for various scientific and technological missions. These include communications satellites like Starlink; space stations such as the ISS; scientific satellites like the Hubble; Earth observation satellites from companies like Planet Labs, Umbra, and HawkEye 360; GPS; miniature CubeSats for education and research; and military/defense satellites.

Not visible in the next 10 days
Identifier
67701, 2026-025J
Orbit
SSO
Country
Flag of USUS
Related business
Manufacturer
SpaceX/Seattle
Mission
Operational spacecraft
Bus & Motor
STARLINK V2MO, Unknown motor
Mass
575 kg wet, ~530 kg dry
Launch date (UTC)
2026-02-07 (1 month ago)
Launch vehicle
FALCON 9
Launch site
Air Force Western Test Range (AFWTR)
Object type
Payload
Rocket body
Debris
Shape & HBR
Unknown
Radar Cross Section
RCS unknown

Expand to show TLE details & history
Last TLE update: 13 hours ago

TLE from 13 hours ago
0 STARLINK-36713
1 67701U 26025J   26071.76384543  .00269899  00000-0  17510-2 0  9991
2 67701  97.2826 183.4890 0002902  76.1739 283.9849 15.75225662  6433
Epoch: 2026-03-12T18:19Z
TLE epoch observation values (Epoch: 2026-03-12T18:19:56.245Z)
Latitude
-0°
Longitude
98.09559°
Altitude
346.687 km
Speed
7.701 km/s
True Right ascension
12h 13m 57s
True Declination
0° 00' 00"
Sunlit
Object was in full shadow at epoch
Visualization orbit readout
Latitude
Unknown
Longitude
Unknown
Altitude
Unknown
Speed
Unknown
Apparent Right ascension
Unknown
Apparent Declination
Unknown
Sunlit
N/A
Visualization observer readout
Local Sidereal Time
12:03:40
Azimuth
Unknown
Elevation
Unknown
Doppler factor
Unknown
Orbital elements
Apogee altitude
342.826 km
Perigee altitude
338.927 km
Semi-major axis
6,719.013 km
Eccentricity
0.00029
Inclination
97.2826°
RAAN
183.489°
Arg. of periapsis
76.1739°
True anomaly
283.95263°
Mean anomaly
283.9849°
Eccentric anomaly
283.96876°
Mean motion
3.9408 °/min
Orbital period
91.35 mins
BSTAR
0.001751
Loading maneuver chart data...
Computing Atmospheric mass density...
Loading historical data...
Loading historical data...
Loading historical data...
Loading historical data...
Loading historical data...
Loading historical data...
Loading historical data...

Documentation

Showing up to 5 results
|